Погода в Медаеве

Россия / Республика Мордовия     54°26′26″N   46°00′11″E
темп.,
°C
ветер,
м/с
пор.,
м/с
влажн.,
%
обл.,
%
осадки,
мм/ч
давл.,
гПа
погр.,
м
7 мая, пт
пт700:00+10ю41279100 0.0 1014275
03:00+9ююв3577100 0.0 101394
06:00+10ююв51374100 0.0 1012368
09:00+13ю71366100 0.0 1012617
12:00+16ю81353100 0.0 10111857
15:00+14юз81275100 0.8 10121361
18:00+8сз6890100 0.9 1014397
21:00+7ссз2591100 1.3 1016337
8 мая, сб
сб800:00+6ссз2492100 0.2 1017153
03:00+5с229098 0.2 101833
06:00+6с23851 0.0 1018158
09:00+10всв456814 0.0 1017788
12:00+12вюв337083 0.0 1015993
15:00+13юв356897 0.1 10141018
18:00+13ю37705 0.0 1012330
21:00+10ююв338092 0.0 101244
9 мая, вс
вс900:00+9ююв31082100 0.0 1011175
03:00+10ююв41173100 0.0 1010264
06:00+11ююв51576100 0.1 1010398
09:00+15ю61367100 0.2 1010731
12:00+14ю51177100 1.1 1011641
15:00+12ююв61291100 2.6 1012471
18:00+12ююв1289100 0.3 101331
21:00+9сз5897100 0.5 1015246
10 мая, пн
пн1000:00+8ссз3695100 0.0 1016192
03:00+8ссз3794100 0.0 1018218
06:00+8с5993100 0.0 1020304
09:00+11ссв7985100 0.0 1021470
12:00+15ссв6777100 0.0 1023742
15:00+16ссв5772100 0.0 1023921
18:00+14ссв6107895 0.0 1024590
21:00+11ссв5118911 0.0 1026393
11 мая, вт
вт1100:00+8св612949 0.0 1027335
03:00+7св5129510 0.0 1027331
06:00+8св6119023 0.0 1028351
09:00+13всв68735 0.0 1028586
12:00+17всв66637 0.0 1028911
15:00+19всв565912 0.0 10271052
18:00+17всв58670 0.0 1027425
21:00+12всв410732 0.0 1028193